DW8219 Weather Reports


time (UTC)temp
C
wind
direction
speed
KPH
gust
KPH
rain 1hr
cm
rain 24hr
cm
rain mn
cm
humidity
%
barometer
mb
20260507203404 16 349 1.6 20.9 0.00 0.48 0.41 37 1005.9
20260507202903 16 351 0.0 8.0 0.00 0.48 0.41 37 1005.9
20260507202404 16 282 8.0 19.3 0.00 0.48 0.41 37 1006.0
20260507201904 16 291 1.6 11.3 0.00 0.48 0.41 36 1005.9
20260507201403 16 253 8.0 16.1 0.00 0.48 0.41 36 1005.9
20260507195904 18 311 8.0 19.3 0.00 0.51 0.41 35 1005.9
20260507194904 17 336 4.8 19.3 0.00 0.51 0.41 34 1006.0
20260507194404 17 320 3.2 16.1 0.00 0.51 0.41 38 1006.0
20260507192405 18 336 3.2 22.5 0.00 0.51 0.41 38 1006.4
20260507191904 17 333 3.2 12.9 0.00 0.51 0.41 38 1006.3
20260507191404 18 326 3.2 16.1 0.00 0.51 0.41 43 1006.5
20260507190904 17 292 6.4 19.3 0.00 0.51 0.41 40 1006.6
20260507190404 17 31 3.2 19.3 0.00 0.51 0.41 37 1006.7
20260507185904 17 330 3.2 25.7 0.00 0.51 0.41 42 1006.6
20260507185404 17 264 8.0 14.5 0.00 0.51 0.41 35 1006.7
20260507184904 17 354 8.0 22.5 0.00 0.53 0.41 41 1006.7
20260507183904 17 296 9.7 20.9 0.00 0.53 0.41 38 1006.8
20260507182904 17 265 6.4 27.4 0.00 0.53 0.41 37 1007.0
20260507182404 18 340 3.2 24.1 0.00 0.53 0.41 44 1007.0
20260507181404 16 53 0.0 8.0 0.00 0.53 0.41 40 1007.1
20260507180904 17 6 3.2 14.5 0.00 0.53 0.41 39 1007.3
20260507180404 16 296 8.0 24.1 0.00 0.53 0.41 37 1007.3
20260507175905 17 301 3.2 14.5 0.00 0.53 0.41 40 1007.4
20260507175404 17 324 4.8 19.3 0.00 0.53 0.41 36 1007.5
20260507174904 17 322 9.7 29.0 0.00 0.53 0.41 38 1007.5
20260507174404 17 295 8.0 19.3 0.00 0.53 0.41 43 1007.4
20260507173904 16 71 3.2 20.9 0.00 0.53 0.41 36 1007.6
20260507172904 16 291 6.4 16.1 0.00 0.56 0.41 42 1007.8
20260507171905 17 303 3.2 16.1 0.00 0.58 0.41 42 1008.0
20260507171405 16 325 9.7 24.1 0.00 0.58 0.41 41 1007.9
20260507170905 16 316 11.3 24.1 0.00 0.58 0.41 39 1008.0
20260507170405 16 301 8.0 24.1 0.00 0.58 0.41 38 1008.1
20260507165904 16 325 9.7 19.3 0.00 0.58 0.41 38 1008.2
20260507165405 16 303 11.3 29.0 0.00 0.58 0.41 42 1008.1
20260507164905 16 257 1.6 19.3 0.00 0.61 0.41 42 1008.1
20260507164404 15 240 0.0 12.9 0.00 0.61 0.41 37 1008.3
20260507163904 15 310 6.4 20.9 0.00 0.61 0.41 39 1008.3
20260507163405 16 293 9.7 24.1 0.00 0.61 0.41 39 1008.4
20260507162904 16 294 11.3 19.3 0.00 0.64 0.41 37 1008.6
20260507162404 16 293 6.4 20.9 0.00 0.64 0.41 39 1008.6
20260507161905 16 312 8.0 19.3 0.00 0.64 0.41 42 1008.7
20260507161405 15 302 6.4 19.3 0.00 0.64 0.41 41 1008.7
20260507160906 15 351 3.2 11.3 0.00 0.64 0.41 38 1008.8
20260507160405 15 334 3.2 16.1 0.00 0.64 0.41 41 1008.9
20260507155406 16 354 1.6 4.8 0.00 0.64 0.41 39 1008.8
20260507154905 15 309 1.6 19.3 0.00 0.64 0.41 41 1008.8
20260507154405 15 338 6.4 16.1 0.00 0.64 0.41 42 1008.9
20260507152905 15 334 4.8 16.1 0.00 0.64 0.41 40 1009.1
20260507152405 15 286 3.2 16.1 0.00 0.64 0.41 42 1009.2
20260507151905 15 313 4.8 16.1 0.00 0.64 0.41 40 1009.3
20260507151405 15 314 4.8 16.1 0.00 0.64 0.41 45 1009.3
20260507150905 14 294 11.3 24.1 0.00 0.64 0.41 41 1009.3
20260507150405 14 303 12.9 27.4 0.00 0.64 0.41 40 1009.4
20260507145906 13 0 3.2 22.5 0.00 0.64 0.41 44 1009.4
20260507145405 13 323 4.8 22.5 0.00 0.64 0.41 43 1009.3
20260507144905 13 305 14.5 25.7 0.00 0.64 0.41 41 1009.5
20260507143905 13 320 6.4 22.5 0.00 0.64 0.41 44 1009.3
20260507143404 13 324 11.3 22.5 0.00 0.64 0.41 43 1009.3
20260507142904 13 322 11.3 19.3 0.00 0.64 0.41 47 1009.3
20260507142403 13 317 4.8 16.1 0.00 0.64 0.41 48 1009.3
20260507141404 13 318 4.8 19.3 0.00 0.64 0.41 49 1009.3
20260507140904 12 298 9.7 24.1 0.00 0.64 0.41 48 1009.4
20260507140404 12 292 11.3 22.5 0.00 0.64 0.41 50 1009.3
20260507135903 12 286 3.2 19.3 0.00 0.64 0.41 53 1009.4
20260507134905 12 320 8.0 19.3 0.00 0.64 0.41 56 1009.3
20260507133904 11 329 4.8 19.3 0.00 0.64 0.41 63 1009.4
20260507133404 11 314 0.0 11.3 0.00 0.64 0.41 64 1009.5
20260507132905 11 334 3.2 16.1 0.00 0.64 0.41 65 1009.5
20260507132403 11 324 9.7 19.3 0.00 0.64 0.41 65 1009.6
20260507131906 11 336 0.0 1.6 0.00 0.64 0.41 65 1009.5
20260507131404 11 304 3.2 12.9 0.00 0.64 0.41 71 1009.5
20260507130904 11 317 4.8 14.5 0.00 0.64 0.41 73 1009.3
20260507125903 11 318 0.0 9.7 0.00 0.64 0.41 76 1009.4
20260507125404 10 286 1.6 16.1 0.00 0.64 0.41 75 1009.3
20260507124904 10 323 3.2 16.1 0.00 0.64 0.41 76 1009.4
20260507124404 10 322 6.4 14.5 0.00 0.64 0.41 77 1009.5
20260507123904 10 324 9.7 19.3 0.00 0.64 0.41 78 1009.7
20260507123404 10 327 1.6 11.3 0.00 0.64 0.41 80 1009.5
20260507122904 10 310 6.4 14.5 0.00 0.64 0.41 81 1009.5
20260507122404 10 302 4.8 19.3 0.00 0.64 0.41 82 1009.5
20260507121905 10 320 11.3 19.3 0.00 0.64 0.41 83 1009.5
20260507121405 9 309 3.2 12.9 0.00 0.64 0.41 83 1009.4
20260507120404 9 314 9.7 19.3 0.00 0.64 0.41 84 1009.3
20260507115905 9 321 9.7 20.9 0.00 0.64 0.41 84 1009.3
20260507114905 9 323 1.6 19.3 0.00 0.64 0.41 85 1009.3
20260507114404 9 278 3.2 16.1 0.00 0.64 0.41 85 1009.2
20260507113904 9 295 8.0 16.1 0.00 0.64 0.41 85 1009.2
20260507112905 8 306 6.4 14.5 0.00 0.64 0.41 86 1009.0
20260507112404 8 312 1.6 16.1 0.00 0.64 0.41 86 1009.0
20260507111905 8 298 4.8 12.9 0.00 0.64 0.41 86 1009.0
20260507110904 8 273 1.6 8.0 0.00 0.64 0.41 87 1008.7
20260507110406 8 311 0.0 0.0 0.00 0.64 0.41 87 1008.7
20260507105905 8 285 0.0 0.0 0.00 0.64 0.41 87 1008.7
20260507105404 8 285 0.0 0.0 0.00 0.64 0.41 87 1008.7
20260507104904 8 299 0.0 0.0 0.00 0.64 0.41 87 1008.7
20260507104405 8 313 0.0 12.9 0.00 0.64 0.41 87 1008.8
20260507103904 8 286 1.6 12.9 0.00 0.64 0.41 87 1008.5
20260507102904 8 298 8.0 14.5 0.00 0.64 0.41 88 1008.4
20260507102405 8 279 4.8 14.5 0.00 0.64 0.41 88 1008.4
20260507101906 8 314 3.2 11.3 0.00 0.64 0.41 88 1008.2
20260507101405 8 326 3.2 12.9 0.00 0.64 0.41 89 1008.2
20260507100905 8 313 6.4 14.5 0.00 0.64 0.41 88 1008.1
20260507095905 8 301 6.4 19.3 0.03 0.64 0.41 89 1007.9
20260507095405 8 282 1.6 12.9 0.03 0.64 0.41 90 1007.8
20260507094905 8 306 3.2 12.9 0.03 0.64 0.41 90 1007.8
20260507093904 8 297 3.2 11.3 0.05 0.64 0.41 91 1007.9
20260507093404 8 300 8.0 16.1 0.05 0.64 0.41 91 1007.9
20260507092905 8 288 4.8 14.5 0.05 0.64 0.41 91 1007.9
20260507092405 8 320 1.6 14.5 0.08 0.64 0.41 91 1007.9
20260507091904 8 311 1.6 12.9 0.08 0.64 0.41 91 1007.9
20260507091404 8 278 3.2 9.7 0.08 0.64 0.41 91 1008.0
20260507090905 9 298 1.6 11.3 0.10 0.64 0.41 91 1008.1
20260507085905 9 304 0.0 4.8 0.08 0.61 0.38 91 1007.8
20260507084405 9 282 1.6 11.3 0.13 0.61 0.38 91 1007.8
20260507083905 9 297 1.6 4.8 0.13 0.58 0.36 91 1007.9
20260507082904 9 252 1.6 14.5 0.20 0.58 0.36 91 1008.0
20260507082404 9 294 0.0 4.8 0.20 0.56 0.33 91 1007.9
20260507081404 9 312 0.0 8.0 0.20 0.56 0.33 90 1007.9
20260507080904 9 289 0.0 8.0 0.18 0.53 0.30 90 1008.0
20260507080405 9 315 0.0 9.7 0.18 0.53 0.30 90 1008.1
20260507075904 9 315 1.6 12.9 0.20 0.53 0.30 90 1008.3
20260507075404 9 271 4.8 12.9 0.18 0.51 0.28 90 1008.0
20260507074405 9 305 4.8 19.3 0.15 0.48 0.25 90 1008.0
20260507073904 9 293 9.7 16.1 0.13 0.46 0.23 90 1007.9
20260507073405 9 283 6.4 16.1 0.08 0.38 0.15 90 1008.2
20260507072904 9 285 1.6 14.5 0.08 0.38 0.15 90 1007.7
20260507071904 9 286 4.8 19.3 0.05 0.36 0.13 89 1007.9
20260507071404 10 306 9.7 19.3 0.05 0.36 0.13 89 1008.0
20260507070904 10 299 6.4 16.1 0.08 0.36 0.13 88 1007.7
20260507070404 10 293 8.0 19.3 0.08 0.36 0.13 88 1007.7
20260507065904 10 302 8.0 19.3 0.05 0.33 0.10 88 1007.7
20260507065404 10 309 8.0 19.3 0.05 0.33 0.10 88 1007.8
20260507064905 10 291 3.2 14.5 0.08 0.33 0.10 87 1007.8
20260507064404 10 260 3.2 19.3 0.08 0.33 0.10 87 1007.9
20260507062904 10 289 0.0 0.0 0.08 0.30 0.08 87 1007.7
20260507062404 10 286 0.0 0.0 0.08 0.30 0.08 86 1007.5
20260507061904 10 315 3.2 16.1 0.08 0.30 0.08 86 1008.0
20260507060904 10 303 0.0 4.8 0.05 0.28 0.05 85 1006.9
20260507060405 10 317 0.0 12.9 0.05 0.28 0.05 85 1007.6
20260507055905 10 318 6.4 14.5 0.05 0.28 0.05 84 1007.6
20260507055404 11 308 1.6 11.3 0.05 0.28 0.05 84 1007.5
20260507054904 11 332 4.8 12.9 0.03 0.25 0.03 83 1007.9
20260507052905 11 314 8.0 14.5 0.00 0.23 0.00 79 1006.9
20260507052405 11 308 8.0 19.3 0.00 0.23 0.00 78 1006.9
20260507051905 11 295 6.4 19.3 0.00 0.23 0.00 77 1007.0
20260507051404 12 270 1.6 16.1 0.00 0.23 0.00 77 1007.0
20260507050904 12 299 8.0 16.1 0.00 0.23 0.00 77 1007.3
20260507045904 12 305 0.0 4.8 0.00 0.23 0.00 77 1007.4
20260507045406 12 318 6.4 12.9 0.00 0.23 0.00 77 1007.3
20260507044904 12 325 6.4 12.9 0.00 0.23 0.00 77 1007.3
20260507044405 12 305 3.2 14.5 0.00 0.23 0.00 76 1007.1
20260507043905 12 318 3.2 16.1 0.00 0.23 0.00 76 1007.3
20260507043404 12 298 8.0 16.1 0.00 0.23 0.00 77 1007.3
20260507042905 12 322 8.0 14.5 0.00 0.23 0.00 77 1007.3
20260507042404 12 341 4.8 12.9 0.00 0.23 0.00 78 1007.4
20260507041904 12 303 1.6 4.8 0.00 0.23 0.00 78 1007.4
20260507041404 12 329 3.2 14.5 0.00 0.23 0.00 78 1007.3
20260507040905 12 312 4.8 16.1 0.00 0.23 0.00 78 1007.4
20260507040405 12 293 1.6 14.5 0.00 0.23 0.00 78 1007.4
20260507035905 12 280 4.8 14.5 0.00 0.23 0.23 78 1007.3
20260507035404 12 281 3.2 16.1 0.00 0.23 0.23 78 1007.4
20260507034905 12 324 8.0 16.1 0.00 0.23 0.23 78 1007.4
20260507034404 12 289 4.8 19.3 0.00 0.23 0.23 78 1007.4
20260507033904 12 303 3.2 12.9 0.00 0.23 0.23 78 1007.3
20260507033405 12 294 4.8 14.5 0.00 0.23 0.23 78 1007.1
20260507032904 12 298 3.2 12.9 0.00 0.23 0.23 78 1007.3
20260507032405 12 316 3.2 20.9 0.00 0.23 0.23 78 1007.2
20260507031905 12 304 6.4 14.5 0.00 0.23 0.23 78 1007.1
20260507031406 13 304 8.0 19.3 0.00 0.23 0.23 78 1006.9
20260507030905 13 302 1.6 19.3 0.00 0.23 0.23 78 1007.0
20260507030405 13 283 1.6 20.9 0.00 0.23 0.23 78 1007.0
20260507025906 13 313 6.4 19.3 0.03 0.23 0.23 79 1007.0
20260507024905 13 307 6.4 19.3 0.05 0.23 0.23 81 1007.1
20260507023905 13 304 9.7 20.9 0.08 0.23 0.23 82 1007.2
20260507023404 13 314 9.7 24.1 0.08 0.23 0.23 83 1007.2
20260507022904 13 317 9.7 19.3 0.08 0.23 0.23 85 1007.4
20260507022404 14 318 9.7 16.1 0.08 0.23 0.23 87 1007.4
20260507021904 14 310 4.8 14.5 0.08 0.23 0.23 87 1007.2
20260507021404 15 313 8.0 24.1 0.08 0.23 0.23 87 1007.5
20260507020904 15 283 4.8 14.5 0.08 0.23 0.23 87 1007.2
20260507020404 15 310 4.8 14.5 0.08 0.23 0.23 87 1006.8
20260507015904 15 321 9.7 19.3 0.05 0.20 0.20 86 1006.8
20260507014904 16 271 0.0 9.7 0.03 0.18 0.18 85 1006.8
20260507013405 17 256 9.7 19.3 0.00 0.15 0.15 83 1006.2
20260507012905 18 181 9.7 20.9 0.00 0.15 0.15 82 1006.0
20260507012404 18 221 8.0 20.9 0.00 0.15 0.15 82 1006.0
20260507011904 18 173 6.4 19.3 0.00 0.15 0.15 81 1006.0
20260507011405 18 207 4.8 14.5 0.00 0.15 0.15 81 1006.0
20260507010904 18 194 4.8 11.3 0.00 0.15 0.15 81 1005.9
20260507010404 18 203 3.2 11.3 0.00 0.15 0.15 81 1006.0
20260507005904 18 200 3.2 12.9 0.00 0.15 0.15 81 1006.0
20260507004904 18 219 4.8 11.3 0.00 0.15 0.15 82 1005.9
20260507004404 18 198 1.6 9.7 0.00 0.15 0.15 82 1005.9
20260507003904 18 210 4.8 11.3 0.00 0.15 0.15 82 1005.8
20260507003404 17 225 4.8 12.9 0.00 0.15 0.15 82 1005.8
20260507001404 17 207 8.0 16.1 0.00 0.15 0.15 82 1005.8
20260507000405 17 186 6.4 14.5 0.00 0.15 0.15 82 1005.7
20260506235905 17 201 6.4 16.1 0.00 0.15 0.15 83 1005.7
20260506235405 17 217 8.0 14.5 0.00 0.15 0.15 82 1005.7
20260506234904 17 220 6.4 16.1 0.00 0.15 0.15 82 1005.7
20260506234404 17 221 8.0 12.9 0.00 0.15 0.15 82 1005.6
20260506233404 17 236 8.0 19.3 0.00 0.15 0.15 82 1005.4
20260506232904 17 235 6.4 19.3 0.00 0.15 0.15 82 1005.5
20260506232405 18 195 8.0 19.3 0.00 0.15 0.15 82 1005.7
20260506231905 17 222 6.4 19.3 0.00 0.15 0.15 82 1005.7
20260506231405 17 219 11.3 19.3 0.00 0.15 0.15 82 1005.6
20260506230405 17 235 11.3 19.3 0.00 0.15 0.15 82 1005.6
20260506225905 17 223 9.7 19.3 0.00 0.15 0.15 83 1005.5
20260506225405 17 211 9.7 19.3 0.00 0.15 0.15 82 1005.5
20260506224905 17 216 9.7 19.3 0.00 0.15 0.15 83 1005.4
20260506224404 17 247 8.0 20.9 0.00 0.15 0.15 83 1005.4
20260506223904 17 231 8.0 20.9 0.00 0.15 0.15 83 1005.4
20260506222904 17 226 11.3 19.3 0.00 0.15 0.15 83 1005.4
20260506222405 17 217 11.3 25.7 0.00 0.15 0.15 83 1005.4
20260506221905 17 228 9.7 20.9 0.00 0.15 0.15 83 1005.3
20260506220904 17 198 9.7 24.1 0.00 0.15 0.15 83 1005.2
20260506220405 17 218 12.9 20.9 0.00 0.15 0.15 84 1005.2
20260506215904 17 223 12.9 24.1 0.00 0.15 0.15 84 1005.2
20260506214405 17 217 16.1 29.0 0.00 0.15 0.15 84 1005.1
20260506213905 17 214 11.3 22.5 0.00 0.15 0.15 84 1005.2
20260506212906 17 225 8.0 22.5 0.00 0.15 0.15 84 1004.9
20260506212404 17 243 12.9 25.7 0.00 0.15 0.15 84 1005.0
20260506211905 17 216 8.0 32.2 0.00 0.15 0.15 85 1004.9
20260506211405 17 231 14.5 32.2 0.00 0.15 0.15 85 1004.9
20260506210905 17 221 11.3 25.7 0.00 0.15 0.15 85 1004.9
20260506210405 17 205 8.0 19.3 0.03 0.15 0.15 86 1004.9
20260506205905 17 231 12.9 24.1 0.03 0.15 0.15 86 1004.8
20260506205404 17 202 8.0 14.5 0.03 0.15 0.15 86 1004.8
20260506204405 17 206 14.5 22.5 0.03 0.15 0.15 86 1004.7
20260506203905 17 196 9.7 20.9 0.03 0.15 0.15 87 1004.7